Zurück zum Katalog

COSMOS 1464

AktivMilitärPO
NORAD 14084·PAYLOAD·🇷🇺 Russia

Gestartet May 24, 1983 von Plesetsk Cosmodrome

Loading…

Nächste Überflüge (nächste 24 Stunden)

TLE

AktuellSource: Space-Track

Epoche: Sep 14, 2026, 11:00 UTC

1 14084U 83048A   26257.45891897  .00000067  00000-0  53951-4 0  9993
2 14084  82.9465 139.2697 0030770 138.6430  34.1963 13.74699739172208

Verfolge COSMOS 1464 in Echtzeit mit AllMySat

Download on the App Store